• în Republica Moldova
  • Lista ţărilor
  • Pe 7 zile
  • Temperatura apei
  • Hartă satelitară
  • Meteo pe hartă
  • Widget-uri
  • user-avatar
    Intrare

    Meteo pe oră la Kitzbuhel

    Astăzi, 27 Iulie, Joi

    Timp Temperatura Precipitaţii Vânt Presiune Umiditate
    00:00 +9°C° 1,1 mm 2 m/s 674 mmHg 96%
    01:00 +9°C° 1,1 mm 2 m/s 674 mmHg 96%
    02:00 +9°C° 0,1 mm 2 m/s 674 mmHg 96%
    03:00 +8°C° 0,1 mm 2 m/s 674 mmHg 95%
    04:00 +8°C° 0,1 mm 2 m/s 674 mmHg 95%
    05:00 +9°C° 0 mm 2 m/s 674 mmHg 92%
    06:00 +10°C° 0 mm 2 m/s 674 mmHg 88%
    07:00 +13°C° 0 mm 2 m/s 675 mmHg 85%
    08:00 +13°C° 0,2 mm 2 m/s 675 mmHg 80%
    09:00 +14°C° 0,2 mm 1 m/s 675 mmHg 76%
    10:00 +15°C° 0,2 mm 1 m/s 675 mmHg 71%
    11:00 +15°C° 0,8 mm 1 m/s 675 mmHg 77%
    12:00 +14°C° 0,8 mm 1 m/s 675 mmHg 82%
    13:00 +13°C° 0,8 mm 1 m/s 674 mmHg 88%
    14:00 +14°C° 0,8 mm 1 m/s 675 mmHg 88%
    15:00 +14°C° 0,8 mm 2 m/s 675 mmHg 88%
    16:00 +15°C° 0,8 mm 2 m/s 675 mmHg 88%
    17:00 +15°C° 0,2 mm 1 m/s 675 mmHg 90%
    18:00 +15°C° 0,2 mm 1 m/s 675 mmHg 91%
    19:00 +15°C° 0,2 mm 1 m/s 675 mmHg 92%
    20:00 +14°C° 0,2 mm 1 m/s 675 mmHg 93%
    21:00 +14°C° 0,2 mm 1 m/s 675 mmHg 93%
    22:00 +13°C° 0,2 mm 1 m/s 676 mmHg 93%
    23:00 +13°C° 0,3 mm 1 m/s 676 mmHg 93%

    Mâine, 28 Iulie, Vineri

    Timp Temperatura Precipitaţii Vânt Presiune Umiditate
    00:00 +13°C° 0,3 mm 1 m/s 676 mmHg 93%
    01:00 +13°C° 0,3 mm 1 m/s 676 mmHg 93%
    02:00 +13°C° 0,1 mm 1 m/s 676 mmHg 93%
    03:00 +12°C° 0,1 mm 1 m/s 675 mmHg 93%
    04:00 +12°C° 0,1 mm 1 m/s 675 mmHg 93%
    05:00 +13°C° 0,1 mm 1 m/s 676 mmHg 92%
    06:00 +13°C° 0,1 mm 1 m/s 676 mmHg 91%
    07:00 +14°C° 0,1 mm 1 m/s 676 mmHg 89%
    08:00 +15°C° 0,5 mm 1 m/s 676 mmHg 89%
    09:00 +15°C° 0,5 mm 1 m/s 677 mmHg 89%
    10:00 +15°C° 0,5 mm 1 m/s 677 mmHg 89%
    11:00 +18°C° 0,1 mm 1 m/s 677 mmHg 83%
    12:00 +20°C° 0,1 mm 1 m/s 678 mmHg 77%
    13:00 +22°C° 0,1 mm 1 m/s 678 mmHg 71%
    14:00 +22°C° 0,2 mm 1 m/s 678 mmHg 72%
    15:00 +21°C° 0,2 mm 2 m/s 678 mmHg 73%
    16:00 +21°C° 0,2 mm 2 m/s 678 mmHg 74%
    17:00 +21°C° 0,2 mm 1 m/s 678 mmHg 80%
    18:00 +20°C° 0,2 mm 1 m/s 678 mmHg 86%
    19:00 +19°C° 0,2 mm 1 m/s 678 mmHg 92%
    20:00 +18°C° 0,1 mm 1 m/s 679 mmHg 94%
    21:00 +16°C° 0,1 mm 1 m/s 679 mmHg 95%
    22:00 +15°C° 0,1 mm 1 m/s 679 mmHg 97%
    23:00 +14°C° 0 mm 1 m/s 679 mmHg 96%

    Poimâine, 29 Iulie, Sâmbătă

    Timp Temperatura Precipitaţii Vânt Presiune Umiditate
    00:00 +14°C° 0 mm 1 m/s 679 mmHg 96%
    01:00 +14°C° 0 mm 1 m/s 679 mmHg 95%
    02:00 +14°C° 0 mm 1 m/s 679 mmHg 95%
    03:00 +14°C° 0 mm 1 m/s 679 mmHg 95%
    04:00 +13°C° 0 mm 1 m/s 679 mmHg 95%
    05:00 +15°C° 0 mm 1 m/s 679 mmHg 93%
    06:00 +16°C° 0 mm 1 m/s 680 mmHg 90%
    07:00 +19°C° 0 mm 1 m/s 680 mmHg 88%
    08:00 +21°C° 0 mm 1 m/s 681 mmHg 78%
    09:00 +23°C° 0 mm 1 m/s 681 mmHg 68%
    10:00 +25°C° 0 mm 1 m/s 682 mmHg 59%
    11:00 +25°C° 0,6 mm 2 m/s 681 mmHg 60%
    12:00 +25°C° 0,6 mm 2 m/s 681 mmHg 62%
    13:00 +25°C° 0,6 mm 2 m/s 681 mmHg 63%
    14:00 +25°C° 1,8 mm 1 m/s 681 mmHg 70%
    15:00 +24°C° 1,8 mm 1 m/s 681 mmHg 77%
    16:00 +21°C° 1,8 mm 0 m/s 681 mmHg 84%
    17:00 +22°C° 1,4 mm 1 m/s 680 mmHg 87%
    18:00 +21°C° 1,4 mm 1 m/s 680 mmHg 90%
    19:00 +20°C° 1,4 mm 1 m/s 680 mmHg 92%
    20:00 +19°C° 0,4 mm 1 m/s 680 mmHg 93%
    21:00 +18°C° 0,4 mm 1 m/s 680 mmHg 93%
    22:00 +17°C° 0,4 mm 2 m/s 680 mmHg 93%
    23:00 +17°C° 0,2 mm 2 m/s 680 mmHg 94%

    30 Iulie, Duminică

    Timp Temperatura Precipitaţii Vânt Presiune Umiditate
    00:00 +16°C° 0,2 mm 2 m/s 679 mmHg 94%
    01:00 +16°C° 0,2 mm 2 m/s 679 mmHg 94%
    02:00 +16°C° 0,2 mm 2 m/s 679 mmHg 93%
    03:00 +16°C° 0,2 mm 2 m/s 679 mmHg 93%
    04:00 +16°C° 0,2 mm 2 m/s 678 mmHg 92%
    05:00 +17°C° 0,1 mm 2 m/s 678 mmHg 90%
    06:00 +18°C° 0,1 mm 2 m/s 678 mmHg 88%
    07:00 +19°C° 0,1 mm 2 m/s 679 mmHg 86%
    08:00 +22°C° 0,2 mm 1 m/s 679 mmHg 76%
    09:00 +24°C° 0,2 mm 1 m/s 679 mmHg 67%
    10:00 +26°C° 0,2 mm 1 m/s 680 mmHg 57%
    11:00 +27°C° 0,4 mm 1 m/s 680 mmHg 54%
    12:00 +28°C° 0,4 mm 1 m/s 680 mmHg 52%
    13:00 +28°C° 0,4 mm 2 m/s 679 mmHg 49%
    14:00 +27°C° 1 mm 2 m/s 679 mmHg 59%
    15:00 +25°C° 1 mm 1 m/s 679 mmHg 69%
    16:00 +24°C° 1 mm 1 m/s 678 mmHg 79%
    17:00 +22°C° 1,8 mm 1 m/s 678 mmHg 84%
    18:00 +21°C° 1,8 mm 1 m/s 678 mmHg 89%
    19:00 +20°C° 1,8 mm 1 m/s 678 mmHg 94%
    20:00 +19°C° 0,2 mm 1 m/s 678 mmHg 94%
    21:00 +18°C° 0,2 mm 2 m/s 678 mmHg 93%
    22:00 +17°C° 0,2 mm 2 m/s 678 mmHg 93%
    23:00 +16°C° 0 mm 2 m/s 678 mmHg 93%

    31 Iulie, Luni

    Timp Temperatura Precipitaţii Vânt Presiune Umiditate
    00:00 +16°C° 0 mm 1 m/s 678 mmHg 93%
    01:00 +15°C° 0 mm 1 m/s 678 mmHg 93%
    02:00 +15°C° 0 mm 1 m/s 678 mmHg 93%
    03:00 +15°C° 0 mm 1 m/s 678 mmHg 93%
    04:00 +14°C° 0 mm 1 m/s 678 mmHg 93%
    05:00 +16°C° 0 mm 1 m/s 679 mmHg 90%
    06:00 +18°C° 0 mm 1 m/s 679 mmHg 87%
    07:00 +20°C° 0 mm 1 m/s 680 mmHg 84%
    08:00 +22°C° 0 mm 1 m/s 680 mmHg 73%
    09:00 +24°C° 0 mm 1 m/s 681 mmHg 63%
    10:00 +27°C° 0 mm 1 m/s 681 mmHg 53%
    11:00 +27°C° 0 mm 2 m/s 681 mmHg 51%
    12:00 +28°C° 0 mm 2 m/s 681 mmHg 49%
    13:00 +29°C° 0 mm 2 m/s 681 mmHg 47%
    14:00 +29°C° 0,1 mm 2 m/s 681 mmHg 51%
    15:00 +28°C° 0,1 mm 2 m/s 680 mmHg 55%
    16:00 +28°C° 0,1 mm 3 m/s 680 mmHg 59%
    17:00 +27°C° 0,4 mm 2 m/s 680 mmHg 67%
    18:00 +25°C° 0,4 mm 2 m/s 680 mmHg 74%
    19:00 +24°C° 0,4 mm 2 m/s 679 mmHg 82%
    20:00 +21°C° 0 mm 2 m/s 679 mmHg 85%
    21:00 +20°C° 0 mm 2 m/s 679 mmHg 87%
    22:00 +19°C° 0 mm 2 m/s 679 mmHg 89%
    23:00 +19°C° 0 mm 2 m/s 679 mmHg 87%

    1 August, Marţi

    Timp Temperatura Precipitaţii Vânt Presiune Umiditate
    00:00 +18°C° 0 mm 2 m/s 679 mmHg 86%
    01:00 +18°C° 0 mm 2 m/s 678 mmHg 84%
    02:00 +17°C° 0 mm 2 m/s 678 mmHg 83%
    03:00 +17°C° 0 mm 2 m/s 678 mmHg 82%
    04:00 +16°C° 0 mm 2 m/s 678 mmHg 81%
    05:00 +18°C° 0 mm 2 m/s 679 mmHg 79%
    06:00 +19°C° 0 mm 2 m/s 679 mmHg 76%
    07:00 +20°C° 0 mm 2 m/s 679 mmHg 74%
    08:00 +24°C° 0 mm 2 m/s 680 mmHg 64%
    09:00 +26°C° 0 mm 2 m/s 680 mmHg 54%
    10:00 +29°C° 0 mm 2 m/s 680 mmHg 44%
    11:00 +30°C° 0 mm 2 m/s 680 mmHg 42%
    12:00 +31°C° 0 mm 2 m/s 680 mmHg 39%
    13:00 +32°C° 0 mm 2 m/s 680 mmHg 37%
    14:00 +32°C° 0 mm 2 m/s 680 mmHg 39%
    15:00 +32°C° 0 mm 2 m/s 679 mmHg 42%
    16:00 +31°C° 0 mm 2 m/s 679 mmHg 44%
    17:00 +29°C° 0,6 mm 2 m/s 679 mmHg 57%
    18:00 +26°C° 0,6 mm 2 m/s 678 mmHg 69%
    19:00 +24°C° 0,6 mm 2 m/s 678 mmHg 82%
    20:00 +21°C° 1,5 mm 2 m/s 678 mmHg 86%
    21:00 +20°C° 1,5 mm 2 m/s 678 mmHg 90%
    22:00 +18°C° 1,5 mm 2 m/s 679 mmHg 94%
    23:00 +18°C° 0,1 mm 2 m/s 679 mmHg 94%
    Arată mai mult